Wind_Speed
14 14 14 13 13 12 11 10 10 9 8 7 7 6 6 7 8 8 7 7 7 7 7 7 7 7 6 6 6 6 8 10 11 14 14 9 11 13 13 15 16 17 18 19 19 19 19 18 16 15 13 11 9 9 9 10 10 7 2 0 0 1 2 4 4 4 5 6 8 11 10 8 9 8 11 15 17 21 16 13 14 9 18 24 24 33 34 34
14 14 14 14 13 13 12 10 10 9 8 8 7 6 6 6 7 8 9 8 7 7 8 8 7 7 7 6 6 5 8 9 12 14 10 7 13 17 16 19 20 18 18 20 22 22 22 20 18 16 14 11 8 8 7 7 10 6 1 1 1 2 3 6 5 6 8 9 12 11 10 11 10 10 13 11 12 18 14 14 19 21 24 24 29 34 32 34
14 13 13 13 13 13 12 11 10 9 8 8 8 7 7 6 6 7 9 10 9 8 7 8 8 7 7 7 6 5 6 8 12 11 7 8 14 17 18 21 22 20 18 20 22 23 21 19 18 17 15 10 8 9 7 7 8 4 2 1 3 3 3 6 7 7 10 14 15 10 11 12 11 12 12 11 13 13 10 14 21 25 28 31 33 34 34 34
14 13 13 12 12 12 12 12 11 10 9 8 8 8 7 6 6 6 8 9 10 9 7 8 8 7 8 7 6 5 4 5 7 5 4 6 11 15 19 22 22 21 19 18 20 22 20 17 17 15 13 7 7 10 8 9 7 2 4 2 3 4 2 7 9 8 13 18 15 13 12 10 11 11 11 16 14 7 11 20 25 30 35 36 36 36 35 32
16 15 14 13 12 12 12 12 11 11 10 9 8 8 8 7 7 7 7 8 9 9 8 9 8 7 8 7 6 4 2 2 5 8 6 6 9 13 18 21 22 21 19 17 18 21 19 17 15 11 8 5 5 8 7 13 10 1 4 4 3 5 2 8 12 11 16 17 14 14 12 10 12 8 9 14 8 8 19 26 30 36 39 39 39 37 34 31
17 16 15 14 13 12 11 11 10 10 10 9 9 8 8 8 7 7 7 7 8 8 9 9 8 7 7 6 5 3 2 1 8 11 8 7 9 12 16 19 20 20 19 18 18 20 20 17 13 8 5 3 5 6 5 15 13 1 4 4 3 4 3 11 15 13 17 17 14 15 13 13 12 7 8 7 1 10 23 28 32 37 39 39 39 36 33 32
17 16 16 15 14 13 12 11 9 9 10 9 9 8 8 8 7 7 7 7 7 7 9 9 8 7 6 6 4 4 7 4 9 11 9 8 9 11 15 17 20 21 22 20 20 21 20 17 13 8 4 3 6 7 5 13 13 4 2 2 3 4 6 14 16 16 19 15 14 16 14 13 11 7 7 6 4 14 24 29 33 35 37 37 37 36 33 31
17 16 15 14 13 13 13 12 10 9 9 9 8 8 8 8 8 7 7 7 7 7 8 8 8 7 5 5 4 5 8 5 7 8 7 7 8 10 14 18 20 22 24 23 22 23 21 18 15 10 4 4 6 5 6 8 6 5 2 1 3 5 8 14 16 17 17 8 8 17 16 11 13 10 5 5 12 21 28 31 32 35 36 35 35 35 33 31
16 15 14 13 13 13 13 13 12 9 9 8 8 7 7 8 8 7 7 7 7 7 6 7 8 8 6 5 4 5 5 6 6 7 6 4 4 6 9 16 21 24 25 24 23 23 22 19 17 13 5 6 5 5 10 7 2 7 7 3 4 10 12 14 13 14 14 9 14 18 12 9 12 11 3 4 17 27 32 33 33 34 34 33 34 34 33 32
15 14 13 13 13 13 13 14 13 11 10 8 7 7 7 8 9 8 7 7 6 5 5 6 7 7 6 4 3 2 5 9 6 5 4 2 3 4 6 12 18 24 25 24 25 24 23 19 16 13 7 7 5 4 11 8 2 8 8 4 8 13 12 14 13 13 14 14 18 15 6 5 6 4 2 6 20 29 34 34 33 34 32 33 33 33 33 32
14 13 13 13 14 15 14 14 14 12 11 9 7 6 6 7 8 8 7 6 5 4 5 6 7 7 6 5 5 4 8 10 5 3 2 1 4 5 6 9 15 22 25 25 26 26 23 17 13 8 4 4 5 3 9 7 2 12 15 12 10 12 10 11 12 13 13 11 19 21 6 1 1 2 5 14 23 27 34 35 33 33 31 32 32 33 33 31
13 13 13 14 16 16 16 16 14 13 12 10 8 5 5 6 7 8 7 6 4 3 4 6 6 6 6 8 11 7 9 9 5 3 4 3 4 4 5 7 12 19 23 24 26 26 21 15 11 7 4 3 7 3 5 3 3 16 16 8 4 6 6 5 6 11 12 8 22 25 7 2 0 2 10 20 22 24 33 34 32 32 30 31 31 32 32 31
13 13 13 15 16 17 18 17 16 14 12 11 8 5 5 6 7 7 6 5 3 3 4 5 6 5 6 8 8 8 8 8 7 7 6 3 4 7 9 10 11 16 20 22 24 23 19 14 10 8 9 8 6 4 3 2 8 12 8 6 5 3 1 1 3 8 10 11 22 19 5 3 2 3 12 21 21 25 33 33 31 31 30 31 31 31 32 31
13 13 14 16 17 18 18 18 16 15 13 11 8 5 5 5 6 5 5 5 3 3 3 4 5 5 6 5 7 9 8 10 10 9 8 5 4 10 14 13 13 16 19 21 22 20 18 13 8 10 13 12 9 5 4 1 7 7 4 3 2 1 1 2 4 6 6 9 14 8 2 4 5 7 14 19 20 26 33 30 30 31 31 31 31 32 32 32
13 14 16 17 18 19 18 18 16 15 13 10 7 6 5 5 5 5 5 5 4 4 4 5 5 6 8 6 7 9 10 12 9 7 7 5 4 9 15 15 15 17 18 20 21 19 16 12 9 10 12 11 8 3 3 3 2 3 4 1 1 2 2 1 4 6 5 7 8 1 3 3 4 8 14 19 21 27 30 29 29 31 31 32 31 32 32 32
13 14 16 17 19 19 18 17 16 15 12 8 6 5 4 4 5 4 5 5 4 5 4 5 5 6 7 5 6 7 10 12 7 5 7 4 2 7 13 14 13 15 17 19 19 17 14 10 10 10 10 7 3 3 4 3 1 1 2 3 2 2 2 0 4 8 6 7 6 3 3 3 3 8 14 18 24 27 25 25 28 30 32 32 31 32 31 31
11 13 15 17 18 18 17 16 16 15 11 8 5 5 4 4 5 4 5 5 5 6 6 6 7 9 6 4 4 5 9 10 7 5 6 4 3 8 13 13 12 14 16 16 15 14 11 9 7 6 6 2 2 4 4 1 2 2 2 3 2 2 3 2 2 7 8 7 6 3 3 5 3 9 15 19 26 26 22 23 25 28 32 31 32 32 30 31
10 12 14 16 17 18 16 16 16 14 10 6 4 4 4 4 5 5 4 5 6 6 7 7 6 5 3 3 2 1 4 7 8 6 5 5 7 9 12 12 11 13 11 9 10 11 9 6 3 2 1 2 2 4 3 3 4 5 3 3 2 2 4 4 2 8 10 7 6 4 4 5 5 9 14 17 24 24 22 23 21 24 31 32 31 31 30 30
9 11 13 15 17 17 15 15 16 12 8 5 4 4 5 5 4 2 4 7 7 5 4 5 5 2 4 6 6 4 4 6 8 9 9 8 10 10 10 9 8 11 7 3 5 8 7 3 2 2 2 4 4 5 5 3 6 7 4 4 5 4 4 4 2 8 12 8 6 6 5 6 8 10 12 16 23 25 23 21 18 21 29 31 31 31 30 30
8 11 14 15 17 16 14 15 14 10 7 6 6 5 5 5 2 1 7 11 11 7 8 10 10 12 13 12 7 5 4 6 10 11 11 10 12 12 11 8 6 7 6 3 3 5 6 3 3 5 5 6 5 5 5 2 3 5 3 2 6 5 4 3 4 7 11 7 4 5 5 8 11 10 11 15 19 21 23 20 16 19 26 30 30 30 30 29
9 11 14 15 16 15 13 13 11 9 9 7 8 6 5 6 3 3 9 12 12 11 12 12 12 15 15 11 6 7 7 3 9 12 11 11 13 11 10 9 4 3 4 4 3 1 4 4 6 7 7 7 4 5 5 4 2 3 4 2 4 4 3 2 5 9 10 4 3 5 7 9 11 10 11 15 15 17 24 22 17 19 25 28 30 31 30 27
9 11 13 15 16 14 12 11 9 9 9 7 8 7 7 9 6 6 8 9 13 14 12 11 11 13 12 9 7 9 8 4 7 11 10 13 16 10 7 6 4 3 2 2 1 1 1 5 8 8 6 4 2 5 5 3 3 2 3 3 3 3 1 3 5 10 8 2 3 6 7 7 8 9 10 13 13 15 23 22 18 20 25 28 29 31 30 27
10 11 13 14 14 13 10 8 8 9 9 7 9 10 9 8 6 7 8 8 11 13 10 8 9 10 10 8 5 4 5 5 8 11 11 14 18 14 9 6 4 3 1 3 4 2 2 6 8 8 4 2 2 3 5 2 3 2 3 3 3 4 4 3 3 10 7 2 5 7 5 4 4 6 7 10 10 10 14 17 17 20 25 30 30 31 32 28
10 11 13 13 12 11 7 6 7 8 8 8 10 9 7 6 5 6 8 5 6 8 5 4 5 7 9 6 1 2 6 8 10 11 13 15 16 12 9 6 5 3 1 4 6 4 6 8 5 3 4 4 4 2 5 3 3 1 4 5 4 4 4 4 7 9 5 3 7 9 4 1 3 5 6 7 7 9 14 16 15 18 23 29 29 29 32 31
10 11 12 12 10 8 6 5 6 8 7 6 7 7 6 6 5 7 7 3 3 5 2 1 4 6 7 3 2 4 6 9 12 12 14 16 14 8 6 6 5 3 4 4 5 4 8 9 3 1 3 5 4 4 4 6 3 2 4 9 7 6 6 10 13 9 4 2 7 9 4 2 4 7 8 6 6 9 14 16 16 17 21 26 27 27 30 31
10 11 12 12 8 5 5 5 6 7 5 4 4 6 6 5 6 6 5 3 2 4 1 2 3 3 4 3 5 6 4 6 10 13 15 16 14 8 5 4 3 4 5 4 3 3 5 5 4 4 4 5 5 5 5 7 4 2 5 9 8 8 11 15 15 8 3 3 6 6 4 1 3 7 8 7 7 8 10 13 17 19 20 24 28 27 29 32
10 11 11 11 8 4 5 5 5 6 5 5 7 7 6 5 7 7 4 4 3 4 1 2 2 2 3 4 9 8 2 3 7 11 16 16 14 11 6 2 2 3 4 4 1 3 4 4 4 5 5 5 5 5 5 8 6 3 5 5 7 9 13 17 14 7 3 4 5 5 2 2 3 6 8 9 9 9 9 11 15 20 22 23 27 27 29 33
10 10 10 10 8 5 5 6 6 5 5 7 8 6 5 5 7 7 2 4 2 4 2 3 3 3 4 5 9 6 2 4 5 8 16 17 13 9 5 4 5 4 3 5 3 5 3 5 6 6 6 4 5 6 7 9 6 6 5 4 7 10 14 15 10 5 4 6 3 7 4 2 3 3 7 10 10 11 13 14 14 19 23 24 26 27 28 31
11 10 9 9 9 7 8 9 9 6 6 8 7 5 5 7 7 4 3 3 2 3 1 1 2 5 6 3 5 6 3 1 2 7 15 16 13 7 3 6 6 3 3 5 5 6 4 7 7 7 5 5 7 8 8 10 6 6 6 5 3 6 9 10 7 4 4 4 4 9 8 2 2 3 6 8 10 13 14 13 15 20 24 25 26 27 27 28
11 10 10 9 9 10 10 9 8 7 7 7 6 7 8 7 3 4 3 2 1 2 1 1 2 3 3 2 1 5 4 2 0 6 10 10 11 5 2 5 4 1 2 1 4 7 7 10 7 4 7 8 8 9 10 13 9 3 5 4 2 3 4 5 2 3 4 2 5 10 12 5 2 3 6 9 12 15 14 11 13 20 24 26 28 29 28 26
10 11 10 9 10 11 11 9 6 6 6 7 10 11 8 3 2 5 2 1 1 2 2 2 2 1 3 4 0 3 2 2 0 6 6 4 5 2 2 2 1 2 3 4 4 5 5 6 5 5 11 11 6 6 8 12 10 3 3 4 4 3 2 4 4 4 2 5 4 8 12 6 3 5 7 12 12 10 13 14 14 19 24 28 30 31 31 27
10 11 10 9 10 11 10 8 6 6 6 9 13 11 3 2 3 2 0 2 2 2 2 3 2 2 2 3 1 2 1 1 0 4 4 3 3 2 2 2 3 1 3 3 3 5 3 4 4 4 9 10 6 3 3 4 6 5 3 5 5 1 1 2 1 2 1 6 4 8 11 6 5 5 7 13 11 6 11 16 18 21 25 28 30 33 32 29
10 10 9 9 9 8 7 5 5 7 8 13 14 6 4 5 3 2 2 2 1 2 2 3 2 3 3 3 1 2 1 1 2 2 1 3 2 3 2 1 4 4 1 4 2 4 3 5 4 2 5 8 9 4 3 3 5 6 5 5 5 4 3 4 2 2 3 9 6 7 10 4 4 3 3 7 10 10 13 18 22 25 27 29 31 33 33 30
9 8 7 7 6 6 5 4 5 7 11 16 11 4 6 5 1 3 3 2 3 3 3 2 0 3 4 2 3 2 1 2 2 3 2 3 3 1 2 4 0 3 3 1 1 0 1 4 4 3 3 5 7 7 6 5 5 5 5 5 5 5 5 4 4 4 5 6 2 6 7 3 2 2 5 7 9 15 17 18 23 25 27 28 29 30 31 30
7 6 6 6 5 3 2 3 6 8 13 16 8 5 6 2 2 2 2 4 2 3 5 4 4 5 3 2 3 0 2 1 2 5 4 3 2 1 1 3 3 1 2 2 2 2 2 4 7 5 6 4 5 6 7 7 4 3 3 5 3 5 5 3 4 6 5 2 1 3 3 3 3 3 7 6 5 11 14 15 18 21 24 25 26 27 30 30
6 6 5 4 1 1 1 3 5 8 13 11 6 4 3 1 3 1 2 3 2 2 4 6 7 5 3 4 4 4 2 2 3 5 3 2 2 2 2 2 3 1 3 4 2 1 1 4 6 5 6 4 5 6 5 6 4 2 3 4 4 4 6 4 1 1 3 4 1 1 1 4 1 2 7 6 5 5 6 9 14 18 22 24 24 26 28 25
7 7 6 3 1 1 2 3 3 7 11 7 6 2 1 2 2 2 3 2 2 2 3 4 4 3 2 2 3 5 4 3 3 3 2 2 2 3 4 3 3 1 2 2 2 2 2 3 6 2 3 5 3 2 0 2 6 4 3 5 3 1 4 3 2 2 3 3 1 1 1 4 1 1 6 9 9 8 6 5 9 13 18 20 21 24 24 20
4 6 6 1 1 4 6 4 2 5 7 5 4 3 1 1 2 2 4 3 2 4 5 3 1 1 1 1 2 5 3 3 2 2 2 2 1 2 2 3 5 5 5 2 1 1 3 2 7 2 2 7 3 3 2 4 3 5 5 3 2 3 1 1 2 2 2 2 1 3 2 2 1 1 5 8 7 7 6 7 8 9 11 14 15 18 19 19
5 5 3 0 2 6 5 4 4 5 6 4 2 3 1 2 4 6 7 4 3 4 4 1 1 1 1 1 1 4 4 3 1 3 2 1 1 1 2 1 5 9 11 5 2 1 2 2 5 4 2 4 4 3 2 3 3 4 4 2 1 3 3 2 2 3 4 3 2 1 3 2 2 1 2 4 6 5 6 7 8 9 11 13 14 16 18 21
6 4 1 2 6 8 5 4 4 5 4 1 1 2 2 2 4 9 11 6 4 4 2 0 2 3 3 2 1 3 3 3 1 3 2 1 2 1 4 2 3 7 10 6 3 1 1 3 2 6 5 1 0 1 4 5 2 3 3 2 1 1 2 2 1 1 4 5 3 2 1 3 2 1 1 5 7 7 8 9 9 10 13 14 16 17 19 20
6 4 1 2 5 7 4 2 3 3 1 1 2 3 3 3 4 8 12 9 6 5 4 2 2 3 1 2 3 3 2 3 3 3 2 1 2 0 3 3 3 4 5 5 4 2 1 2 1 4 5 1 3 4 3 6 5 5 4 2 3 2 3 3 0 2 2 4 4 5 3 4 2 2 2 4 7 8 11 12 12 13 14 13 14 16 17 17
5 2 1 2 4 6 5 1 2 1 1 2 2 2 3 4 3 7 10 9 7 5 5 4 2 2 2 1 1 2 2 3 3 2 2 1 2 2 3 7 5 2 3 1 3 3 1 2 1 2 3 3 7 7 3 2 3 5 4 2 3 3 3 5 3 3 2 3 2 3 2 2 1 2 1 5 9 12 14 15 15 16 16 14 13 13 13 13
6 2 2 1 3 5 4 1 3 2 2 4 3 3 3 3 4 7 8 7 4 3 4 3 1 2 3 1 1 2 2 3 3 2 1 1 1 1 5 10 8 3 3 2 3 3 1 2 2 3 4 4 6 6 4 4 5 5 2 2 2 2 2 5 5 3 4 3 2 3 1 1 1 2 3 8 13 15 15 16 18 19 20 19 18 15 12 10
6 4 3 4 2 4 4 1 2 3 4 3 2 3 4 5 7 7 4 4 4 1 2 2 2 1 2 1 2 3 1 3 4 3 2 1 2 5 8 13 11 5 2 1 2 3 3 1 2 3 3 4 6 6 7 7 5 2 3 4 2 2 4 4 2 3 3 3 4 4 2 2 2 2 4 8 11 13 14 15 19 21 22 22 19 16 13 8
5 3 5 7 4 4 4 3 3 2 3 2 4 4 5 4 7 9 6 5 7 3 3 2 1 1 3 3 4 5 4 4 3 2 3 2 3 5 11 15 13 7 4 2 3 2 2 2 2 3 3 2 2 2 3 4 3 3 3 5 4 2 4 4 2 4 2 2 3 5 3 3 5 6 7 7 7 10 12 14 18 21 22 20 18 16 14 11
4 2 5 6 5 1 1 2 1 2 1 3 4 4 5 1 4 12 12 9 12 9 4 3 2 1 4 5 4 6 6 5 3 2 3 4 3 3 10 15 15 12 9 9 6 1 3 3 2 4 4 3 4 3 5 3 2 4 5 6 6 3 1 5 4 2 4 3 2 1 5 9 9 8 8 8 8 10 10 12 16 19 21 20 18 17 16 16
4 2 2 4 4 4 6 6 5 3 2 4 3 2 4 3 3 9 11 7 9 10 5 5 6 4 3 4 3 3 5 5 6 4 2 3 3 3 9 13 15 15 12 11 11 4 4 4 4 3 3 1 3 2 4 1 3 3 4 5 7 7 3 6 4 3 6 6 0 3 8 12 12 10 9 9 9 9 9 12 15 18 20 21 21 21 20 20
3 1 1 3 2 1 3 6 6 6 6 5 4 1 3 6 4 5 6 5 8 10 5 5 8 7 5 3 3 2 5 5 5 4 3 4 3 4 8 8 10 16 13 9 10 5 5 2 3 1 3 3 4 6 6 4 2 2 4 7 8 8 4 5 3 2 6 5 4 9 11 10 11 11 9 8 9 10 12 15 19 22 22 21 22 22 21 20
5 1 1 5 1 4 3 5 1 8 8 4 4 3 2 5 5 2 3 4 6 8 6 4 5 8 8 6 5 3 4 3 3 4 3 3 3 2 4 4 7 14 12 6 6 5 4 1 4 2 3 6 9 9 7 6 5 5 7 8 8 7 5 6 5 5 7 5 6 12 11 6 7 9 7 9 13 15 16 17 20 23 22 20 21 21 20 21
6 4 5 5 3 4 7 5 2 6 6 3 3 3 2 3 4 3 4 5 2 5 5 5 2 5 7 7 7 5 1 4 3 2 1 1 3 1 1 1 3 8 10 4 4 5 3 1 3 4 4 5 9 10 9 7 5 7 9 9 8 8 6 6 7 8 9 8 9 13 12 5 4 7 11 14 18 19 18 17 17 18 18 19 20 20 19 19
6 6 8 5 2 6 8 5 3 4 3 3 2 1 2 3 2 1 4 7 5 1 1 4 2 3 6 8 8 4 3 3 3 3 3 1 1 1 1 0 1 3 6 4 3 4 4 2 3 5 4 3 8 10 11 9 6 8 10 11 9 6 2 2 3 4 8 11 11 11 9 5 5 10 14 16 19 19 17 17 18 18 19 21 21 21 21 20
4 4 7 4 1 5 6 3 3 4 1 1 1 2 2 2 2 3 4 7 9 8 4 5 4 3 5 7 7 7 8 5 2 3 3 5 6 8 9 9 9 5 2 2 3 3 2 2 2 3 3 2 7 8 8 7 6 5 5 7 8 3 1 2 3 3 9 13 11 8 6 6 9 13 12 12 15 16 16 19 22 22 22 23 23 23 22 21
Wind_Direction
1 0 358 357 356 357 1 4 5 1 355 346 336 330 321 317 314 313 311 307 306 307 309 311 316 316 307 295 279 255 243 241 244 244 241 224 201 204 194 179 177 179 180 182 184 180 176 172 170 173 175 188 207 223 225 225 219 195 173 298 320 275 147 149 179 163 133 139 158 172 169 144 144 150 133 129 132 138 139 137 143 140 144 153 156 157 158 158
358 357 354 352 350 349 351 354 358 357 356 350 341 331 320 311 306 306 307 306 305 308 310 310 315 314 309 304 291 268 254 247 251 248 233 208 201 199 188 177 175 176 178 182 182 178 176 171 171 175 180 193 210 219 221 207 201 191 143 72 235 262 131 150 170 145 144 151 153 168 169 150 148 146 143 137 136 140 130 129 131 125 135 147 153 157 160 161
356 355 352 350 347 345 345 346 348 349 350 348 345 339 327 311 300 298 300 304 306 307 309 312 314 315 313 309 301 281 269 263 260 251 224 207 205 197 186 179 176 172 174 179 180 180 179 172 174 181 185 203 220 205 202 197 201 207 175 318 251 217 132 148 155 152 157 152 147 159 164 156 150 144 148 145 136 141 138 142 140 133 140 148 154 159 160 163
356 354 352 349 346 344 342 342 342 340 341 339 342 343 335 318 302 294 294 299 304 308 312 314 315 318 314 310 310 292 296 292 254 215 178 196 200 198 188 182 180 172 169 176 181 183 182 177 178 187 193 223 232 198 195 199 199 188 177 242 225 179 128 155 160 158 154 151 149 151 154 155 156 147 145 146 139 149 160 158 154 147 149 152 156 159 161 166
355 355 353 351 348 344 342 340 338 336 334 331 334 338 339 328 308 296 294 297 302 309 312 312 313 316 314 311 310 285 331 4 184 148 133 167 181 195 188 185 186 174 167 174 183 184 182 179 178 188 205 241 217 185 203 203 192 167 217 252 197 168 116 158 163 158 154 151 147 148 152 156 155 132 131 151 154 170 166 165 162 155 155 157 158 159 162 166
353 353 352 352 350 346 343 338 336 334 331 328 326 328 336 331 315 299 296 300 302 309 310 309 311 314 312 307 305 254 223 162 163 138 118 144 159 183 187 187 188 179 173 176 184 187 185 184 182 186 208 244 198 187 207 195 191 233 253 264 225 186 132 155 159 161 161 156 155 158 152 143 131 94 123 149 184 169 166 167 162 158 159 159 159 160 163 168
350 350 352 354 353 349 344 339 336 333 331 328 322 320 328 330 321 301 297 303 304 310 308 304 307 310 313 302 294 249 248 228 157 137 115 123 138 167 185 189 189 187 183 180 184 188 188 189 191 195 211 238 208 214 205 182 190 220 279 263 211 185 152 156 159 164 168 168 169 152 128 125 123 108 139 137 138 165 165 164 161 157 159 159 161 164 167 171
349 353 358 0 359 355 348 344 341 337 331 327 323 315 318 325 320 305 299 302 305 311 302 298 303 305 312 292 282 280 259 219 159 147 127 117 125 154 182 190 191 192 188 183 183 186 190 192 195 196 208 241 221 210 180 164 192 219 257 271 161 150 149 153 155 159 160 156 127 112 105 122 133 130 136 113 136 158 161 159 158 156 157 161 164 167 170 173
352 358 3 4 4 2 357 352 347 344 335 327 325 314 311 318 316 308 299 304 310 308 294 290 297 300 306 285 278 300 246 184 166 165 146 132 140 151 182 192 194 195 191 186 185 187 191 195 198 196 213 264 255 201 173 160 228 216 220 265 138 130 133 141 143 147 140 102 88 91 94 119 124 123 116 115 140 154 160 157 157 156 159 164 168 171 173 175
355 2 5 5 4 3 0 355 349 347 339 327 324 314 306 309 313 310 301 310 312 300 293 290 296 299 298 280 257 256 171 156 154 163 151 160 205 201 192 195 198 198 193 187 187 189 191 193 196 200 236 278 282 232 184 175 246 197 172 60 101 119 123 132 127 131 117 92 105 108 103 121 115 128 170 160 145 151 158 157 158 159 161 168 170 173 175 177
355 1 2 1 358 356 355 351 345 344 339 329 323 312 302 303 310 309 302 315 313 296 299 300 304 298 293 273 241 202 154 153 154 171 188 232 250 246 215 202 203 202 197 190 189 189 189 190 190 201 245 281 313 291 185 191 230 155 128 71 82 100 101 118 116 127 111 96 131 129 119 190 106 143 165 161 148 150 158 158 161 162 164 171 172 174 177 179
352 357 358 356 353 351 349 344 340 339 336 328 322 310 295 298 306 307 304 314 312 301 311 314 311 299 296 274 241 198 154 167 175 182 202 238 259 247 223 215 207 205 202 193 188 187 186 188 196 220 265 305 325 323 196 237 154 144 128 90 98 86 85 115 107 128 117 130 148 131 113 277 12 128 153 161 157 154 160 160 163 165 167 172 173 175 178 181
347 352 353 352 351 350 348 343 339 337 334 325 319 304 287 295 307 308 303 311 306 297 319 323 316 309 299 273 223 177 164 186 197 197 202 239 239 203 202 212 209 206 205 196 188 187 189 194 212 254 287 302 304 292 287 297 139 137 114 109 130 69 51 159 83 118 114 144 152 133 128 209 195 185 158 167 170 160 161 164 165 167 169 172 174 176 180 183
345 348 350 351 352 351 349 346 342 339 334 324 315 295 285 297 311 308 298 307 300 288 319 321 321 323 291 250 170 167 190 202 209 202 198 228 232 198 195 198 200 200 201 197 192 193 199 208 242 279 287 279 264 277 327 38 131 125 93 104 124 103 187 117 108 127 119 161 165 133 131 175 187 191 171 176 176 162 163 165 166 168 171 174 177 180 183 187
343 346 349 350 351 351 351 351 348 344 335 325 312 293 292 307 317 310 291 295 289 281 306 307 309 323 300 261 169 173 200 209 209 187 188 225 241 208 196 188 190 192 193 196 195 197 204 218 253 272 280 271 253 276 6 28 80 124 126 105 5 130 157 69 148 167 151 175 196 143 114 175 203 192 182 179 171 163 165 166 166 169 172 176 180 184 187 191
342 345 346 347 349 350 352 355 354 350 340 330 318 305 310 322 320 309 292 291 280 277 293 295 294 317 309 257 182 174 198 208 201 177 196 219 245 207 188 176 178 183 189 194 196 202 212 241 265 258 261 258 208 111 55 37 10 278 121 134 165 142 155 54 170 192 171 155 206 257 140 169 210 186 181 174 165 163 168 171 168 171 174 176 181 186 189 192
342 342 341 344 349 350 353 356 356 353 344 338 336 331 343 331 318 305 293 291 283 283 289 281 286 301 287 221 178 165 191 205 201 197 206 191 160 171 164 160 166 176 186 191 201 218 231 250 258 247 247 223 120 95 82 105 205 261 40 109 169 140 160 183 155 189 183 157 191 232 166 167 156 164 172 172 167 167 176 178 172 173 177 179 183 187 190 193
338 337 338 343 350 352 354 356 355 355 348 353 5 356 6 349 320 294 287 300 292 295 296 270 274 305 270 215 196 149 209 218 211 214 214 169 158 166 158 147 153 166 175 188 209 226 235 240 207 207 260 135 111 114 145 193 167 166 150 125 150 142 181 217 181 174 181 180 184 176 171 172 137 153 168 173 177 181 184 182 178 176 177 182 185 188 191 193
333 334 337 344 353 352 353 355 355 0 2 16 36 43 44 19 346 306 307 302 280 282 302 258 240 272 277 278 289 315 291 230 220 227 219 184 170 180 168 145 153 162 151 155 217 213 205 211 150 164 201 189 187 160 171 175 116 139 174 159 165 175 206 215 161 164 169 173 183 168 163 166 157 163 165 171 185 189 186 188 189 180 178 183 186 189 193 193
331 334 338 347 355 350 351 356 358 14 33 44 45 57 57 28 23 343 316 298 279 276 285 276 267 271 283 288 287 319 308 207 210 219 210 193 181 186 188 179 169 164 153 152 204 204 176 182 220 202 203 211 202 162 178 240 86 117 136 168 182 186 213 186 122 159 167 165 186 163 147 163 169 173 164 170 187 189 185 195 200 186 182 186 188 191 195 195
330 334 339 348 354 348 347 355 5 28 43 55 49 49 45 32 39 338 321 306 302 300 291 290 282 274 280 282 277 313 320 232 205 205 202 205 191 185 201 198 149 158 209 192 192 198 149 191 232 216 210 213 193 141 167 254 298 108 119 168 197 198 224 175 124 157 165 147 150 142 144 169 175 172 163 168 186 191 187 193 199 190 187 188 191 193 196 198
330 333 338 347 352 346 342 354 13 28 32 47 45 40 35 24 6 340 334 309 305 307 299 295 282 274 277 280 290 299 296 276 228 208 196 199 196 192 195 182 142 185 226 140 131 13 170 229 239 225 218 217 197 123 146 238 281 98 128 173 207 209 153 63 113 156 160 137 136 141 148 170 174 168 168 176 189 196 192 194 197 191 188 190 192 193 195 195
328 330 337 345 349 344 340 355 13 21 29 40 37 33 22 358 331 325 327 296 294 302 294 278 273 279 285 293 307 275 231 233 234 205 181 183 191 193 179 151 150 185 124 119 151 149 211 241 237 222 198 196 248 135 135 244 292 113 150 188 228 202 152 73 143 159 154 131 137 133 131 153 166 167 176 183 188 201 206 209 205 197 193 192 193 192 193 192
325 329 336 343 349 344 339 355 9 20 34 49 45 32 11 346 325 320 320 294 287 304 296 260 270 281 286 296 351 231 217 220 220 194 180 181 178 178 181 163 142 169 198 162 158 167 236 254 245 201 160 181 241 195 137 188 265 227 190 218 225 182 159 132 153 152 119 92 129 121 105 189 195 189 192 181 179 203 211 214 213 205 196 193 194 193 193 192
324 330 336 344 351 345 340 352 5 15 30 54 44 17 7 355 337 333 334 338 293 308 351 187 261 270 275 270 162 203 211 212 209 189 186 188 177 161 175 174 152 196 218 157 146 188 253 262 250 171 164 175 220 239 173 171 227 310 229 225 210 161 132 129 143 145 108 137 156 134 128 237 224 205 204 181 177 204 208 212 217 209 196 193 195 193 192 192
325 331 337 345 355 353 343 345 350 355 6 24 2 348 356 347 334 335 344 34 354 308 8 166 240 248 252 224 173 177 183 206 201 191 190 193 192 174 156 169 158 199 197 152 153 211 253 248 184 193 206 180 207 240 203 165 155 300 246 224 199 147 131 142 151 152 135 176 181 158 136 201 229 216 204 181 189 207 209 217 221 215 202 195 195 191 189 189
323 330 339 344 354 3 345 336 330 333 338 337 328 325 334 340 339 335 344 42 16 307 304 199 218 170 170 172 173 164 129 196 191 196 195 191 195 183 168 195 169 198 191 135 197 240 234 224 183 196 201 183 208 236 204 158 145 237 247 206 174 147 145 160 162 156 139 118 167 199 148 101 227 220 186 178 197 209 211 221 222 219 212 202 198 192 187 188
319 328 339 341 345 346 329 315 310 321 322 319 322 324 324 330 335 338 38 71 341 303 301 230 227 204 197 191 191 183 125 153 159 201 200 191 192 181 176 193 168 195 194 135 212 256 213 206 201 194 201 203 212 222 195 163 171 242 237 181 174 165 161 168 163 150 131 104 162 221 185 114 264 228 168 177 199 210 212 216 217 217 215 208 204 197 187 187
314 323 333 336 337 330 320 311 306 314 312 314 331 337 320 320 332 358 95 79 327 301 320 236 239 233 226 205 205 220 229 148 121 195 197 191 195 187 185 203 182 208 225 159 212 257 239 226 213 175 186 213 218 222 188 171 201 238 213 207 185 162 162 163 161 139 116 120 200 212 192 168 283 216 161 172 204 215 210 210 212 214 215 211 208 202 191 187
308 316 326 330 333 332 332 331 320 313 315 326 339 331 320 315 346 61 64 32 342 265 262 234 248 234 199 100 290 244 233 296 12 179 183 183 194 197 161 195 182 145 287 260 233 252 259 254 246 180 199 218 220 222 189 183 206 202 179 198 66 74 133 136 148 92 107 212 226 198 191 182 296 224 177 188 209 207 198 197 204 208 212 211 209 205 197 190
302 313 323 326 331 334 338 344 333 314 320 328 328 328 330 330 77 81 57 330 273 298 307 266 258 231 153 123 127 256 227 307 343 152 164 163 181 203 75 132 166 53 355 333 287 280 280 258 246 210 218 217 210 228 200 184 197 184 141 149 85 29 51 70 5 28 107 246 235 181 183 180 238 239 202 214 220 194 188 194 195 199 204 207 208 207 204 200
300 309 318 322 328 332 334 336 322 318 325 327 329 334 358 41 34 55 273 308 330 304 279 259 242 206 174 119 158 247 188 290 226 137 158 132 130 208 173 166 185 93 332 289 298 320 297 238 238 231 230 209 171 229 235 158 169 166 139 134 123 99 107 115 312 25 196 255 242 161 161 177 242 245 218 224 225 187 189 199 197 197 198 200 204 206 207 207
298 303 310 315 323 331 333 332 322 329 339 337 338 353 87 74 37 324 295 317 292 257 266 264 208 141 116 85 288 263 48 266 226 149 132 102 105 232 237 201 161 127 214 227 293 344 323 288 280 271 252 204 167 174 214 176 165 164 157 155 154 150 153 175 179 89 216 254 257 154 154 193 266 274 266 242 223 199 196 200 199 198 197 198 202 204 207 209
293 293 301 309 320 328 327 342 343 346 349 347 351 48 69 60 1 316 320 269 253 283 309 304 110 91 92 126 239 198 98 267 191 119 70 56 47 327 348 344 355 127 135 193 284 153 136 292 254 204 244 205 175 180 180 160 156 174 168 148 155 161 159 174 175 174 208 246 269 136 154 203 230 250 290 283 235 202 194 198 196 194 195 196 199 203 205 207
283 281 297 308 316 323 335 359 356 354 351 352 11 75 60 52 260 316 306 269 295 325 321 350 53 63 47 321 289 273 139 225 81 77 46 50 64 341 340 344 343 27 132 148 251 193 139 258 248 242 256 224 193 196 161 123 129 204 149 118 163 186 157 142 173 183 180 156 108 147 182 232 207 267 307 305 232 185 175 180 180 181 186 189 193 199 204 205
270 278 291 296 309 110 72 344 342 350 350 1 48 65 46 197 223 238 265 285 342 325 326 7 39 45 1 334 325 335 29 57 56 67 46 71 91 3 332 290 327 343 152 151 215 229 77 269 275 298 283 239 199 201 172 145 161 192 129 153 211 184 130 123 177 168 111 126 182 184 308 307 309 336 343 16 64 85 116 149 159 165 174 180 187 196 202 201
270 283 279 271 75 178 258 292 321 343 349 22 72 49 249 209 204 207 277 331 43 27 49 44 23 33 355 337 327 327 4 33 27 66 56 27 36 347 331 292 286 229 184 172 190 183 140 274 287 314 302 282 229 179 168 129 134 130 168 197 209 125 91 106 143 19 62 127 248 10 327 306 7 55 349 18 39 26 28 95 131 146 162 173 185 192 194 191
293 293 280 278 15 275 264 271 305 341 356 41 47 339 233 262 313 320 325 352 58 41 66 76 353 59 73 39 321 324 20 56 3 63 87 33 2 280 332 309 301 333 334 320 151 121 102 309 289 256 256 297 311 95 32 354 68 122 162 171 130 143 174 81 148 170 104 127 276 343 334 284 163 165 344 13 21 7 23 68 93 110 138 159 175 182 184 189
337 316 302 279 277 273 270 273 295 351 18 51 19 320 260 283 324 8 14 31 70 59 74 74 4 52 39 84 279 326 44 82 51 98 102 55 97 267 21 345 302 339 354 16 114 305 82 100 284 282 281 300 336 74 173 279 357 58 82 56 75 143 161 157 157 160 134 141 192 336 343 277 205 283 343 38 34 37 62 72 75 81 102 128 149 160 171 188
347 345 340 244 268 275 275 281 318 17 34 57 235 267 284 299 333 17 37 62 65 54 89 226 37 51 359 17 23 339 47 63 45 96 91 61 113 313 340 2 301 331 356 30 79 318 48 91 271 300 334 17 177 242 191 183 148 75 56 16 304 93 130 155 113 76 122 140 163 141 242 266 282 349 73 77 67 76 88 83 73 68 80 104 126 142 158 177
356 8 323 269 285 275 255 265 323 22 52 284 251 245 293 331 336 10 38 65 70 61 90 114 89 80 22 17 18 343 36 41 24 77 70 30 108 160 320 326 290 318 0 23 29 10 33 74 257 306 345 4 248 270 214 180 165 135 120 158 181 159 127 131 257 315 95 126 160 150 181 262 315 42 94 90 89 90 86 86 82 69 69 83 103 125 146 161
7 15 198 313 304 245 216 214 312 325 150 277 278 260 308 338 347 5 22 44 59 55 61 70 83 74 61 45 355 3 58 42 14 56 84 34 126 162 312 332 333 2 59 24 303 289 194 97 47 286 282 265 271 284 277 204 145 109 108 146 151 137 115 128 186 245 79 85 105 103 127 252 1 50 101 101 97 93 86 86 83 72 64 63 73 96 121 134
2 9 161 331 291 219 194 330 325 329 265 262 290 317 333 10 20 10 12 25 38 43 47 43 15 46 49 35 19 40 61 52 24 24 53 9 24 322 333 355 4 29 69 36 304 310 348 79 27 308 293 307 298 302 339 21 68 70 15 15 86 84 109 139 174 170 124 133 114 76 45 217 86 50 111 108 97 93 92 93 92 84 74 67 67 81 101 109
6 16 55 50 55 187 180 225 293 308 290 288 15 1 5 50 38 11 2 6 5 66 91 20 328 41 50 85 69 37 32 76 49 20 34 60 347 339 353 8 15 22 42 8 280 319 351 45 47 17 355 351 343 346 357 2 27 43 305 317 2 68 99 122 138 77 101 192 152 128 195 208 136 126 123 111 97 91 93 96 97 93 89 86 88 97 108 109
20 16 16 41 81 187 206 213 211 226 283 6 52 12 0 47 37 25 35 19 12 59 126 13 325 88 52 65 62 28 37 82 75 15 24 7 317 345 7 16 20 17 6 328 271 288 27 57 75 94 112 87 44 10 331 313 328 332 310 335 359 89 124 141 123 75 107 204 122 127 174 159 147 146 129 120 108 101 99 97 96 97 99 100 99 101 106 103
42 22 352 22 55 94 258 273 217 174 158 59 57 15 16 31 0 25 44 37 18 27 59 24 2 71 49 53 52 19 22 51 66 70 30 345 300 332 14 25 26 18 15 17 9 39 100 44 52 116 124 148 170 216 260 263 357 339 317 342 1 353 86 111 111 120 165 146 73 169 161 145 155 161 141 132 124 114 108 103 104 107 109 110 107 106 107 104
57 38 345 0 8 14 19 13 23 61 84 76 80 359 22 32 336 18 37 38 21 23 36 28 19 26 37 52 74 24 4 28 39 39 1 327 283 307 8 26 28 21 24 24 15 42 109 26 4 89 83 222 213 266 307 347 61 347 321 6 13 347 8 95 121 186 152 125 84 216 158 148 162 166 150 140 129 118 118 118 116 112 109 108 108 107 106 106
48 25 39 29 337 268 7 356 16 60 68 69 72 15 23 40 38 22 14 15 23 25 37 33 15 18 25 50 111 56 4 31 30 359 337 344 330 339 359 3 12 19 29 29 19 54 115 41 334 24 39 6 351 358 4 32 71 1 357 33 28 354 8 94 105 151 134 139 191 172 155 152 157 156 149 142 134 126 128 129 121 112 107 105 103 100 99 104
38 33 4 18 329 228 277 298 352 71 60 53 53 32 25 42 41 11 340 5 15 14 46 71 7 20 38 46 92 74 12 50 37 341 340 359 346 14 14 337 341 8 22 32 21 48 110 30 339 359 27 16 5 2 12 29 37 20 10 26 35 17 30 80 84 81 87 98 138 137 131 125 139 149 142 127 125 122 120 119 114 109 108 106 103 101 99 101
46 37 348 353 329 303 331 335 91 80 47 36 61 32 26 53 44 22 17 38 14 342 36 81 35 38 57 53 74 80 36 145 131 339 331 16 354 28 47 289 294 350 11 24 353 14 64 5 345 37 43 356 352 359 6 13 33 36 13 6 26 36 41 75 100 99 83 82 102 115 117 110 116 132 126 121 123 122 120 117 111 109 112 110 106 106 105 102
66 39 3 353 341 342 351 358 67 83 39 20 69 24 1 18 29 81 45 45 65 26 43 124 129 46 50 46 54 44 316 196 182 301 291 193 37 68 69 12 240 340 4 16 350 5 44 22 359 53 73 327 337 354 352 347 12 36 14 354 0 20 38 73 114 125 120 120 118 117 128 145 145 135 128 126 128 126 123 119 112 110 114 113 109 106 105 103
81 42 359 346 330 357 1 354 29 69 81 303 92 80 37 357 3 99 80 38 49 61 79 131 124 70 47 32 16 348 334 330 329 358 55 104 92 88 86 72 68 64 14 9 21 15 46 75 45 68 113 285 321 338 349 0 18 14 347 336 331 318 154 78 36 93 130 135 137 148 157 150 142 140 135 133 134 131 126 123 120 119 116 113 110 107 105 105
Height
1514 1513 1512 1511 1510 1510 1509 1509 1508 1507 1506 1506 1505 1504 1504 1502 1501 1501 1500 1500 1499 1499 1499 1498 1498 1498 1497 1497 1496 1496 1495 1495 1495 1494 1493 1492 1493 1494 1495 1497 1498 1500 1501 1502 1503 1504 1505 1507 1508 1509 1510 1511 1512 1512 1513 1514 1514 1515 1516 1519 1521 1519 1520 1519 1518 1517 1515 1516 1518 1519 1519 1520 1522 1524 1525 1526 1528 1528 1530 1532 1532 1533 1534 1537 1539 1541 1543 1544
1515 1513 1512 1511 1510 1509 1509 1508 1507 1506 1506 1505 1504 1504 1503 1502 1501 1500 1499 1499 1499 1498 1498 1497 1497 1497 1496 1496 1496 1495 1495 1494 1493 1492 1491 1491 1492 1493 1494 1496 1497 1499 1500 1501 1502 1503 1505 1506 1508 1509 1510 1511 1511 1512 1512 1513 1513 1514 1516 1518 1518 1515 1514 1514 1513 1512 1513 1515 1517 1519 1520 1521 1522 1523 1525 1527 1529 1530 1531 1533 1534 1534 1537 1539 1541 1543 1545 1546
1514 1513 1512 1511 1509 1508 1508 1507 1506 1506 1505 1504 1503 1503 1502 1502 1501 1500 1499 1499 1498 1498 1497 1497 1496 1496 1495 1495 1495 1494 1494 1493 1492 1490 1490 1490 1491 1492 1493 1495 1496 1498 1500 1502 1503 1504 1506 1507 1508 1509 1509 1510 1510 1511 1512 1512 1512 1512 1514 1518 1515 1510 1510 1511 1511 1511 1512 1514 1516 1519 1521 1522 1523 1524 1525 1527 1530 1532 1532 1533 1533 1534 1536 1539 1542 1544 1545 1547
1513 1513 1511 1510 1509 1508 1507 1506 1505 1505 1504 1503 1503 1502 1501 1501 1500 1500 1499 1498 1498 1497 1497 1496 1495 1495 1495 1494 1494 1494 1493 1492 1490 1489 1489 1489 1490 1491 1492 1494 1496 1498 1500 1502 1503 1505 1506 1508 1509 1509 1510 1510 1510 1511 1511 1511 1512 1511 1512 1515 1510 1507 1510 1511 1511 1512 1513 1515 1516 1519 1522 1523 1524 1525 1526 1527 1531 1534 1533 1533 1532 1532 1535 1538 1541 1544 1546 1548
1512 1511 1510 1510 1509 1507 1506 1505 1504 1504 1503 1502 1502 1501 1500 1500 1499 1499 1498 1498 1497 1497 1496 1495 1495 1494 1494 1493 1493 1493 1494 1493 1489 1488 1488 1488 1489 1490 1492 1494 1495 1497 1499 1501 1502 1504 1506 1507 1508 1509 1510 1510 1509 1511 1510 1508 1510 1510 1509 1509 1507 1507 1509 1510 1511 1512 1514 1516 1518 1519 1522 1523 1525 1527 1528 1529 1531 1531 1530 1532 1533 1532 1534 1537 1540 1544 1547 1548
1511 1510 1509 1508 1507 1507 1506 1505 1504 1503 1502 1501 1501 1500 1500 1499 1498 1498 1497 1497 1497 1496 1495 1495 1494 1494 1493 1493 1493 1492 1493 1492 1488 1488 1488 1488 1489 1490 1492 1494 1495 1497 1499 1500 1501 1503 1505 1506 1508 1509 1509 1509 1509 1509 1507 1507 1508 1511 1509 1506 1507 1507 1508 1509 1510 1512 1514 1516 1517 1519 1521 1523 1525 1528 1529 1530 1531 1531 1531 1533 1534 1535 1536 1539 1542 1544 1547 1549
1510 1509 1508 1507 1506 1505 1504 1504 1503 1502 1502 1501 1500 1499 1499 1498 1497 1497 1496 1496 1496 1496 1495 1494 1494 1493 1492 1492 1492 1492 1492 1490 1488 1488 1489 1489 1489 1490 1492 1493 1495 1497 1498 1498 1500 1502 1504 1505 1507 1508 1509 1509 1508 1507 1506 1506 1507 1510 1510 1506 1506 1507 1507 1509 1509 1512 1514 1516 1518 1519 1522 1524 1526 1529 1530 1530 1531 1532 1534 1535 1537 1538 1540 1542 1544 1545 1548 1549
1509 1508 1507 1506 1505 1504 1504 1503 1502 1501 1501 1500 1499 1499 1498 1497 1497 1496 1496 1495 1495 1495 1494 1494 1493 1492 1492 1492 1491 1491 1490 1489 1488 1489 1489 1489 1490 1490 1492 1493 1494 1496 1497 1498 1499 1501 1503 1504 1506 1508 1509 1508 1506 1506 1505 1507 1509 1510 1509 1506 1506 1507 1508 1509 1510 1512 1516 1521 1524 1523 1525 1526 1526 1528 1531 1530 1531 1533 1535 1538 1539 1540 1542 1544 1545 1546 1549 1551
1509 1508 1506 1506 1505 1504 1503 1502 1501 1500 1500 1499 1498 1498 1497 1497 1496 1495 1495 1495 1495 1494 1494 1493 1493 1492 1492 1491 1491 1491 1489 1488 1489 1489 1490 1490 1490 1491 1492 1492 1494 1495 1496 1497 1499 1501 1502 1503 1506 1507 1508 1507 1506 1505 1504 1508 1510 1507 1507 1506 1506 1508 1508 1510 1511 1513 1518 1523 1527 1528 1528 1529 1528 1529 1531 1531 1532 1534 1536 1539 1541 1541 1543 1545 1546 1547 1549 1551
1508 1507 1506 1505 1504 1503 1502 1501 1500 1499 1499 1498 1497 1497 1496 1496 1495 1495 1494 1494 1494 1493 1493 1492 1492 1492 1491 1491 1491 1490 1487 1488 1489 1489 1490 1490 1490 1491 1491 1492 1493 1494 1496 1497 1498 1500 1501 1503 1506 1506 1507 1506 1505 1504 1503 1507 1507 1503 1505 1506 1507 1508 1508 1510 1512 1514 1518 1523 1527 1530 1531 1531 1532 1532 1533 1533 1533 1536 1537 1539 1542 1542 1544 1545 1547 1548 1550 1551
1508 1507 1506 1505 1504 1503 1502 1501 1500 1499 1498 1497 1496 1496 1495 1495 1494 1494 1494 1494 1493 1493 1492 1492 1491 1491 1491 1491 1491 1489 1486 1488 1489 1489 1490 1490 1490 1490 1491 1492 1493 1494 1496 1497 1497 1499 1502 1504 1506 1507 1507 1506 1504 1503 1502 1503 1503 1502 1504 1508 1510 1510 1511 1511 1513 1515 1518 1523 1526 1526 1531 1532 1532 1534 1533 1533 1534 1536 1538 1539 1542 1543 1544 1546 1547 1549 1551 1552
1507 1506 1506 1505 1504 1502 1501 1500 1499 1498 1497 1496 1495 1495 1494 1494 1494 1493 1493 1493 1493 1492 1492 1491 1491 1490 1490 1490 1488 1486 1486 1487 1488 1488 1489 1489 1489 1490 1491 1492 1492 1494 1495 1497 1498 1500 1503 1505 1506 1506 1506 1505 1505 1504 1503 1502 1502 1502 1503 1510 1515 1513 1514 1514 1514 1516 1517 1522 1523 1522 1533 1537 1533 1534 1533 1533 1535 1536 1538 1540 1542 1543 1545 1547 1548 1550 1551 1553
1507 1506 1505 1504 1503 1502 1501 1499 1498 1497 1496 1495 1494 1494 1493 1493 1493 1493 1493 1493 1492 1492 1491 1491 1490 1490 1490 1488 1485 1485 1486 1486 1487 1487 1488 1488 1488 1488 1490 1491 1492 1494 1496 1497 1499 1501 1503 1505 1505 1505 1505 1505 1505 1504 1503 1501 1502 1504 1504 1510 1518 1519 1520 1516 1516 1519 1518 1522 1521 1521 1538 1543 1534 1533 1532 1533 1535 1536 1538 1540 1541 1543 1545 1547 1548 1550 1551 1553
1506 1505 1504 1504 1503 1501 1500 1498 1497 1496 1495 1494 1493 1493 1492 1492 1492 1492 1492 1492 1492 1491 1491 1490 1490 1489 1489 1486 1484 1485 1485 1485 1486 1486 1487 1487 1487 1487 1488 1489 1491 1493 1495 1497 1500 1502 1504 1505 1506 1506 1505 1505 1503 1502 1503 1502 1503 1507 1510 1512 1519 1524 1523 1518 1518 1521 1521 1524 1520 1521 1538 1543 1534 1531 1531 1533 1534 1535 1537 1539 1541 1543 1544 1547 1548 1550 1551 1552
1506 1504 1504 1503 1502 1501 1499 1498 1496 1495 1494 1493 1492 1492 1492 1492 1492 1492 1492 1491 1491 1491 1490 1490 1490 1489 1488 1485 1483 1485 1484 1484 1485 1486 1486 1486 1486 1487 1487 1488 1490 1492 1495 1497 1500 1502 1504 1505 1506 1505 1503 1502 1502 1504 1505 1506 1507 1508 1516 1523 1522 1524 1524 1520 1519 1520 1521 1523 1521 1524 1538 1541 1533 1531 1531 1532 1534 1534 1537 1538 1540 1542 1543 1546 1548 1549 1550 1551
1505 1504 1503 1502 1501 1500 1499 1497 1496 1495 1493 1492 1492 1492 1491 1491 1491 1491 1491 1491 1491 1490 1490 1490 1489 1490 1488 1484 1483 1484 1484 1484 1485 1486 1486 1486 1486 1486 1487 1489 1490 1492 1494 1497 1499 1501 1503 1505 1504 1504 1503 1502 1503 1506 1508 1512 1515 1511 1515 1525 1525 1524 1528 1524 1520 1518 1518 1521 1522 1524 1533 1537 1532 1530 1532 1532 1533 1534 1536 1538 1539 1541 1543 1544 1547 1548 1550 1551
1505 1504 1503 1502 1501 1500 1498 1497 1496 1494 1493 1492 1492 1491 1491 1491 1491 1491 1491 1491 1491 1490 1490 1490 1489 1489 1486 1482 1483 1484 1484 1485 1485 1486 1486 1486 1487 1487 1488 1489 1490 1493 1494 1497 1499 1500 1503 1503 1503 1503 1502 1502 1502 1505 1513 1519 1522 1518 1516 1522 1523 1523 1527 1527 1523 1519 1518 1521 1524 1524 1528 1531 1529 1529 1532 1533 1533 1534 1535 1537 1538 1540 1542 1544 1546 1548 1549 1550
1505 1504 1503 1502 1501 1499 1498 1497 1495 1494 1492 1492 1491 1491 1491 1491 1490 1490 1490 1491 1490 1490 1490 1489 1489 1489 1485 1481 1482 1483 1484 1485 1485 1485 1486 1486 1487 1488 1489 1490 1491 1493 1494 1497 1499 1499 1502 1501 1501 1503 1502 1503 1504 1506 1514 1517 1517 1519 1519 1521 1522 1522 1525 1525 1522 1518 1517 1521 1524 1526 1528 1528 1528 1529 1532 1534 1534 1535 1535 1537 1539 1540 1541 1543 1544 1546 1548 1549
1505 1504 1503 1502 1500 1499 1497 1496 1495 1493 1492 1492 1491 1491 1491 1491 1490 1490 1490 1490 1490 1489 1489 1487 1488 1488 1485 1482 1482 1482 1483 1483 1484 1485 1486 1486 1487 1489 1490 1491 1492 1494 1495 1498 1499 1498 1500 1500 1501 1504 1504 1504 1504 1505 1509 1508 1509 1513 1514 1516 1520 1522 1522 1519 1517 1514 1514 1521 1524 1526 1528 1529 1529 1531 1532 1533 1533 1534 1536 1536 1538 1539 1540 1542 1543 1545 1547 1548
1504 1503 1502 1501 1500 1498 1497 1496 1494 1493 1493 1492 1492 1491 1491 1491 1491 1490 1490 1488 1487 1486 1486 1486 1485 1485 1484 1482 1482 1482 1482 1482 1483 1484 1485 1486 1487 1489 1490 1492 1493 1494 1496 1498 1499 1497 1498 1502 1503 1503 1503 1502 1502 1504 1505 1504 1506 1510 1511 1514 1516 1518 1518 1514 1514 1513 1512 1521 1526 1524 1526 1529 1530 1531 1531 1532 1533 1534 1535 1535 1536 1537 1539 1541 1542 1543 1545 1547
1504 1503 1502 1500 1499 1498 1496 1495 1494 1493 1493 1492 1492 1492 1491 1491 1491 1491 1489 1486 1484 1484 1484 1484 1484 1483 1482 1481 1481 1482 1482 1482 1482 1483 1485 1486 1487 1489 1490 1491 1493 1496 1496 1496 1497 1496 1498 1504 1502 1499 1500 1499 1501 1503 1504 1503 1505 1509 1512 1514 1515 1517 1517 1512 1513 1513 1512 1521 1527 1524 1527 1530 1529 1530 1531 1533 1534 1534 1533 1534 1535 1536 1537 1540 1540 1542 1544 1546
1503 1502 1501 1500 1499 1497 1496 1495 1494 1494 1493 1493 1493 1492 1492 1492 1492 1492 1490 1486 1483 1482 1482 1482 1482 1481 1480 1481 1481 1481 1483 1483 1482 1483 1484 1486 1487 1488 1490 1491 1494 1496 1496 1496 1498 1500 1502 1503 1499 1497 1497 1498 1501 1503 1504 1505 1505 1509 1511 1512 1514 1515 1515 1515 1514 1513 1513 1521 1528 1526 1529 1532 1529 1529 1532 1533 1534 1534 1534 1534 1534 1535 1536 1538 1539 1541 1543 1545
1503 1502 1501 1500 1498 1497 1496 1495 1495 1494 1494 1493 1493 1493 1493 1493 1492 1491 1491 1488 1483 1480 1480 1481 1481 1480 1480 1480 1480 1480 1482 1482 1482 1483 1484 1485 1486 1488 1489 1491 1494 1495 1496 1498 1500 1505 1506 1500 1494 1495 1497 1499 1501 1503 1504 1505 1506 1508 1510 1511 1513 1511 1515 1522 1521 1516 1514 1519 1525 1527 1531 1534 1531 1531 1532 1534 1534 1535 1537 1536 1535 1536 1536 1537 1539 1540 1541 1543
1502 1501 1501 1499 1498 1497 1496 1495 1495 1494 1494 1493 1493 1493 1493 1492 1492 1491 1490 1488 1485 1480 1479 1480 1480 1480 1479 1479 1480 1480 1481 1481 1481 1482 1483 1485 1486 1488 1489 1490 1494 1496 1497 1498 1499 1503 1502 1494 1492 1495 1497 1499 1502 1503 1505 1507 1508 1508 1508 1508 1509 1509 1510 1516 1519 1517 1517 1521 1521 1526 1538 1540 1534 1535 1535 1533 1534 1534 1535 1536 1535 1535 1536 1537 1539 1539 1540 1542
1502 1501 1500 1499 1498 1497 1496 1495 1494 1494 1494 1493 1493 1493 1492 1491 1491 1490 1489 1490 1488 1481 1478 1480 1480 1479 1478 1479 1480 1480 1480 1481 1481 1482 1483 1484 1486 1488 1489 1490 1493 1496 1498 1498 1500 1502 1498 1492 1492 1496 1498 1500 1502 1504 1505 1507 1509 1509 1505 1501 1503 1506 1508 1511 1514 1518 1528 1534 1524 1524 1546 1549 1535 1534 1535 1532 1533 1533 1533 1534 1534 1534 1535 1536 1537 1538 1540 1541
1501 1501 1499 1499 1498 1496 1496 1495 1494 1494 1494 1493 1493 1492 1492 1491 1490 1490 1490 1493 1492 1483 1479 1481 1480 1479 1478 1479 1480 1480 1483 1482 1480 1482 1483 1484 1486 1486 1489 1491 1491 1495 1496 1497 1499 1499 1495 1491 1492 1496 1498 1500 1503 1504 1503 1504 1510 1512 1502 1494 1498 1503 1508 1512 1513 1519 1533 1537 1523 1519 1539 1549 1541 1535 1532 1532 1534 1533 1533 1533 1532 1533 1534 1534 1535 1537 1538 1540
1501 1500 1499 1499 1497 1496 1496 1495 1495 1495 1493 1493 1492 1492 1492 1491 1491 1489 1490 1500 1499 1485 1481 1482 1480 1479 1478 1479 1479 1481 1487 1485 1480 1482 1482 1484 1486 1485 1490 1492 1492 1494 1492 1496 1503 1498 1492 1492 1494 1496 1497 1500 1503 1503 1500 1500 1509 1510 1496 1491 1497 1502 1507 1510 1510 1517 1523 1525 1525 1521 1527 1543 1545 1535 1528 1531 1535 1534 1533 1532 1530 1531 1532 1533 1534 1535 1537 1538
1500 1500 1499 1499 1497 1497 1496 1495 1495 1494 1493 1493 1492 1492 1491 1490 1491 1489 1495 1509 1503 1484 1481 1481 1479 1479 1478 1479 1479 1480 1483 1482 1482 1483 1481 1484 1486 1485 1489 1491 1491 1493 1490 1496 1506 1497 1489 1493 1494 1494 1498 1500 1499 1497 1495 1497 1503 1500 1491 1491 1495 1498 1503 1505 1509 1515 1514 1522 1537 1531 1526 1539 1543 1532 1526 1529 1534 1534 1531 1528 1527 1528 1530 1531 1533 1534 1536 1538
1500 1499 1499 1499 1498 1497 1496 1495 1494 1494 1493 1492 1491 1492 1490 1489 1490 1489 1499 1510 1498 1483 1482 1481 1479 1480 1478 1478 1480 1479 1480 1480 1482 1483 1481 1484 1485 1485 1488 1489 1489 1492 1490 1494 1499 1494 1489 1490 1489 1491 1496 1496 1492 1490 1490 1494 1498 1492 1489 1492 1492 1496 1501 1504 1511 1514 1515 1526 1538 1531 1526 1536 1539 1533 1530 1532 1533 1530 1524 1524 1524 1525 1527 1529 1531 1533 1535 1537
1499 1499 1499 1498 1497 1497 1496 1495 1494 1493 1493 1492 1492 1491 1489 1490 1491 1496 1509 1508 1493 1485 1483 1481 1480 1479 1478 1480 1481 1480 1480 1480 1480 1481 1482 1484 1485 1485 1487 1487 1488 1491 1492 1492 1493 1490 1486 1485 1486 1487 1489 1487 1485 1486 1486 1489 1491 1488 1491 1494 1497 1501 1502 1507 1511 1511 1524 1534 1528 1522 1522 1530 1537 1533 1528 1524 1516 1512 1515 1520 1521 1522 1525 1526 1529 1531 1533 1536
1499 1498 1498 1497 1497 1496 1495 1494 1493 1493 1492 1491 1491 1489 1489 1490 1493 1505 1512 1501 1490 1487 1482 1481 1481 1478 1479 1482 1483 1481 1480 1480 1480 1481 1483 1484 1486 1487 1487 1489 1491 1493 1496 1494 1491 1489 1485 1485 1485 1481 1481 1480 1482 1484 1484 1485 1487 1489 1493 1496 1505 1511 1510 1520 1523 1521 1539 1540 1520 1514 1517 1527 1538 1528 1517 1510 1500 1501 1509 1512 1515 1516 1520 1523 1526 1529 1531 1535
1498 1498 1497 1497 1496 1496 1495 1494 1493 1493 1492 1491 1490 1488 1489 1494 1500 1508 1505 1493 1492 1490 1482 1481 1481 1478 1480 1482 1483 1482 1481 1482 1481 1481 1483 1486 1488 1488 1489 1492 1493 1499 1505 1501 1495 1490 1485 1483 1481 1478 1477 1477 1482 1487 1486 1487 1488 1492 1496 1498 1511 1523 1526 1539 1544 1540 1548 1537 1513 1510 1517 1528 1530 1513 1506 1505 1500 1502 1505 1505 1510 1513 1516 1521 1524 1527 1530 1533
1498 1497 1497 1496 1496 1495 1495 1494 1493 1493 1492 1490 1489 1487 1490 1501 1508 1506 1498 1494 1493 1487 1480 1480 1479 1479 1481 1483 1484 1482 1482 1483 1481 1481 1484 1486 1489 1489 1489 1490 1489 1496 1503 1501 1499 1496 1490 1484 1479 1479 1478 1473 1478 1487 1489 1490 1490 1492 1495 1499 1511 1525 1536 1548 1551 1550 1550 1531 1510 1508 1518 1526 1520 1505 1502 1502 1500 1501 1502 1504 1509 1511 1515 1519 1522 1526 1529 1532
1497 1497 1496 1496 1495 1495 1495 1494 1494 1493 1491 1489 1488 1488 1495 1507 1508 1500 1496 1494 1489 1482 1480 1480 1479 1480 1482 1484 1484 1481 1482 1484 1481 1483 1486 1487 1493 1493 1492 1491 1489 1491 1494 1497 1499 1499 1501 1496 1483 1479 1479 1473 1474 1479 1481 1484 1488 1488 1488 1493 1501 1508 1520 1534 1540 1544 1541 1527 1515 1513 1521 1526 1516 1506 1502 1498 1497 1498 1500 1503 1506 1509 1514 1518 1522 1526 1528 1531
1497 1496 1496 1495 1495 1495 1494 1495 1494 1493 1492 1489 1488 1492 1502 1510 1507 1499 1496 1491 1486 1484 1483 1480 1480 1484 1486 1485 1483 1480 1481 1484 1483 1486 1490 1492 1496 1497 1495 1493 1490 1489 1492 1498 1499 1496 1503 1499 1480 1474 1474 1471 1473 1472 1471 1478 1487 1489 1485 1490 1496 1493 1497 1509 1518 1521 1520 1522 1525 1522 1522 1520 1510 1504 1499 1495 1496 1497 1499 1503 1505 1509 1513 1516 1521 1524 1526 1530
1497 1496 1496 1495 1495 1495 1494 1495 1494 1493 1492 1489 1491 1498 1503 1504 1501 1497 1493 1488 1487 1486 1484 1483 1485 1489 1491 1488 1485 1482 1480 1483 1485 1489 1493 1495 1496 1496 1495 1492 1490 1490 1491 1496 1496 1496 1502 1494 1477 1473 1471 1468 1471 1469 1467 1474 1483 1488 1488 1490 1490 1483 1485 1498 1509 1510 1511 1522 1529 1525 1523 1518 1510 1507 1502 1497 1499 1501 1502 1504 1506 1509 1511 1515 1519 1521 1525 1529
1497 1496 1496 1495 1495 1495 1495 1495 1494 1493 1492 1490 1496 1501 1500 1496 1494 1493 1489 1486 1487 1486 1486 1492 1493 1494 1496 1493 1491 1487 1483 1485 1488 1491 1496 1498 1497 1496 1494 1491 1489 1489 1489 1491 1491 1492 1498 1493 1478 1475 1474 1469 1467 1468 1467 1467 1473 1484 1489 1485 1483 1484 1486 1492 1506 1515 1521 1530 1532 1527 1529 1526 1520 1518 1511 1506 1508 1508 1507 1506 1508 1511 1512 1515 1518 1520 1525 1528
1497 1496 1496 1495 1496 1495 1495 1495 1494 1494 1492 1493 1499 1500 1496 1494 1491 1489 1488 1486 1487 1486 1490 1498 1496 1494 1496 1496 1495 1490 1485 1489 1491 1493 1497 1499 1499 1497 1495 1493 1489 1487 1487 1488 1489 1488 1493 1496 1483 1474 1476 1472 1465 1469 1474 1470 1468 1474 1479 1477 1481 1493 1496 1495 1505 1515 1525 1539 1540 1533 1532 1528 1525 1526 1521 1518 1518 1514 1512 1509 1509 1512 1513 1516 1518 1521 1524 1526
1497 1497 1496 1496 1496 1495 1495 1495 1495 1494 1493 1497 1502 1500 1495 1493 1490 1489 1488 1487 1488 1489 1493 1498 1496 1494 1495 1495 1495 1491 1488 1491 1493 1494 1498 1500 1500 1497 1494 1494 1490 1487 1486 1486 1488 1488 1490 1497 1490 1475 1474 1474 1469 1473 1480 1479 1473 1470 1474 1477 1480 1488 1493 1495 1500 1504 1516 1537 1544 1538 1535 1529 1526 1527 1525 1523 1521 1517 1515 1513 1512 1514 1514 1515 1518 1520 1522 1524
1498 1497 1497 1496 1496 1496 1496 1496 1495 1495 1496 1500 1503 1500 1495 1493 1491 1489 1489 1487 1488 1491 1494 1496 1495 1496 1496 1493 1494 1492 1490 1493 1493 1494 1498 1499 1500 1498 1493 1493 1491 1488 1487 1486 1488 1488 1488 1496 1495 1480 1473 1476 1478 1478 1479 1479 1478 1477 1480 1484 1484 1485 1487 1491 1497 1498 1507 1527 1539 1540 1538 1531 1525 1523 1522 1521 1519 1516 1514 1514 1515 1516 1516 1517 1517 1519 1521 1522
1498 1498 1497 1497 1497 1497 1497 1497 1497 1497 1498 1500 1501 1498 1495 1493 1492 1490 1490 1488 1489 1490 1492 1493 1494 1496 1497 1495 1494 1493 1492 1494 1494 1496 1498 1498 1500 1500 1494 1492 1491 1489 1488 1488 1489 1489 1490 1494 1496 1490 1483 1482 1481 1477 1474 1475 1475 1476 1481 1485 1486 1486 1488 1497 1505 1504 1503 1514 1526 1529 1529 1530 1526 1520 1520 1520 1517 1515 1515 1514 1516 1518 1519 1520 1520 1520 1522 1523
1499 1499 1498 1498 1498 1497 1498 1499 1499 1499 1499 1498 1498 1496 1494 1493 1492 1491 1490 1489 1490 1490 1491 1493 1494 1495 1496 1496 1495 1494 1494 1496 1496 1496 1498 1498 1498 1498 1494 1491 1491 1489 1489 1492 1492 1489 1490 1493 1495 1493 1488 1484 1481 1476 1476 1475 1472 1474 1478 1481 1484 1484 1487 1496 1504 1505 1506 1511 1516 1519 1522 1527 1526 1519 1518 1519 1516 1515 1516 1516 1517 1519 1521 1523 1523 1523 1525 1526
1499 1499 1499 1498 1498 1498 1499 1501 1501 1499 1498 1496 1496 1495 1494 1494 1494 1492 1491 1491 1491 1492 1492 1494 1495 1495 1495 1495 1495 1495 1496 1499 1499 1497 1497 1498 1495 1494 1493 1491 1491 1490 1490 1493 1493 1489 1490 1495 1497 1493 1487 1482 1478 1474 1473 1473 1474 1478 1480 1480 1482 1483 1484 1489 1493 1496 1505 1512 1515 1519 1526 1529 1524 1519 1518 1518 1516 1516 1517 1517 1518 1520 1521 1523 1524 1525 1527 1528
1499 1499 1499 1499 1498 1498 1500 1502 1501 1500 1498 1496 1495 1496 1495 1495 1495 1495 1494 1494 1493 1493 1494 1495 1496 1495 1495 1494 1495 1496 1497 1500 1502 1500 1498 1498 1496 1494 1493 1492 1492 1491 1491 1493 1493 1490 1493 1499 1500 1500 1498 1493 1490 1488 1484 1480 1481 1485 1486 1482 1482 1483 1483 1487 1490 1493 1504 1513 1511 1514 1526 1530 1523 1519 1519 1518 1517 1517 1518 1519 1520 1520 1521 1522 1523 1524 1526 1528
1499 1499 1499 1499 1499 1499 1499 1500 1500 1500 1499 1498 1497 1498 1497 1497 1497 1497 1496 1495 1494 1494 1495 1497 1496 1495 1495 1494 1495 1497 1496 1497 1501 1502 1500 1499 1497 1495 1494 1494 1493 1492 1492 1492 1490 1489 1495 1501 1502 1505 1510 1513 1513 1510 1503 1495 1491 1489 1488 1484 1483 1484 1483 1485 1491 1496 1504 1512 1511 1513 1524 1529 1522 1519 1520 1519 1518 1518 1519 1520 1521 1522 1523 1524 1524 1524 1525 1527
1500 1501 1501 1499 1499 1499 1499 1499 1498 1498 1498 1499 1500 1501 1501 1500 1499 1497 1496 1496 1496 1495 1496 1497 1496 1496 1496 1496 1499 1501 1499 1498 1500 1502 1503 1502 1500 1497 1496 1495 1494 1493 1493 1491 1489 1490 1496 1501 1502 1504 1509 1511 1511 1506 1500 1496 1495 1494 1492 1487 1485 1486 1484 1484 1490 1495 1500 1509 1515 1517 1521 1524 1522 1521 1521 1520 1518 1519 1520 1521 1522 1523 1524 1525 1526 1527 1528 1530
1503 1504 1505 1504 1502 1500 1500 1499 1498 1498 1498 1499 1502 1504 1504 1503 1501 1499 1497 1498 1499 1497 1497 1498 1498 1498 1498 1499 1502 1504 1503 1501 1501 1503 1506 1505 1502 1499 1497 1495 1495 1494 1493 1491 1490 1491 1497 1503 1504 1503 1504 1504 1503 1500 1495 1494 1496 1498 1495 1489 1486 1486 1485 1484 1489 1492 1495 1505 1514 1517 1517 1519 1521 1520 1520 1520 1519 1519 1521 1522 1523 1524 1524 1525 1527 1528 1529 1533
1505 1506 1506 1506 1506 1505 1503 1501 1500 1499 1499 1499 1502 1505 1505 1504 1504 1503 1502 1500 1500 1499 1499 1502 1503 1502 1501 1500 1503 1507 1507 1506 1507 1507 1507 1506 1504 1501 1499 1496 1496 1495 1494 1493 1492 1493 1500 1506 1505 1503 1502 1502 1501 1499 1495 1493 1494 1497 1496 1490 1487 1490 1487 1486 1491 1495 1493 1495 1503 1511 1517 1519 1519 1518 1519 1520 1519 1520 1522 1523 1523 1523 1524 1526 1527 1528 1531 1535
1506 1506 1507 1507 1507 1506 1505 1503 1502 1500 1500 1501 1504 1506 1506 1506 1506 1506 1504 1502 1503 1502 1502 1507 1509 1506 1504 1503 1504 1509 1511 1511 1513 1511 1508 1508 1507 1505 1504 1502 1498 1496 1496 1496 1496 1497 1501 1506 1507 1505 1503 1503 1503 1500 1495 1494 1495 1496 1496 1493 1490 1493 1492 1490 1495 1498 1496 1497 1502 1509 1517 1520 1518 1518 1520 1520 1521 1522 1523 1525 1525 1524 1526 1528 1529 1531 1534 1537
1507 1508 1507 1507 1507 1505 1504 1503 1502 1501 1502 1504 1506 1507 1507 1508 1507 1507 1506 1506 1507 1506 1505 1509 1511 1508 1507 1506 1506 1510 1513 1512 1513 1512 1509 1509 1508 1506 1507 1507 1503 1500 1498 1499 1500 1499 1501 1506 1508 1507 1507 1508 1506 1501 1496 1497 1498 1497 1498 1495 1491 1494 1498 1497 1498 1499 1502 1508 1511 1512 1519 1523 1520 1518 1520 1522 1523 1524 1525 1527 1528 1528 1530 1531 1532 1534 1536 1538
1508 1509 1508 1507 1507 1505 1504 1504 1503 1503 1505 1506 1507 1508 1508 1509 1508 1508 1508 1508 1508 1508 1507 1508 1510 1508 1508 1508 1508 1511 1511 1510 1510 1509 1507 1508 1508 1506 1506 1506 1505 1504 1502 1503 1503 1501 1503 1508 1509 1510 1515 1515 1511 1508 1503 1498 1497 1498 1499 1498 1496 1498 1501 1500 1499 1498 1501 1510 1516 1517 1521 1522 1519 1518 1521 1523 1525 1526 1527 1529 1530 1532 1534 1534 1535 1536 1537 1538
1509 1509 1509 1508 1507 1507 1506 1506 1505 1506 1507 1507 1507 1508 1509 1509 1508 1507 1510 1510 1509 1508 1508 1508 1508 1508 1509 1510 1510 1510 1509 1509 1508 1508 1507 1507 1507 1506 1506 1505 1505 1505 1505 1505 1506 1507 1508 1509 1510 1513 1518 1521 1520 1516 1506 1500 1504 1508 1505 1502 1502 1501 1500 1499 1499 1498 1498 1503 1510 1513 1514 1514 1515 1517 1520 1523 1526 1527 1529 1530 1531 1534 1536 1537 1537 1537 1538 1539